Simultaneous Nadir Overpasses (SNOs) Predictions

Prediction of SNOs between FY3D and NOAA-19 Satellite Orbit:

Table of predicted SNOs for the next 14.0 days since TLE Epoch: 2/25/2023
Index Date (FY3D) Time (FY3D) Lat,Lon (FY3D) SZA (FY3D ) Date (NOAA-19) Time (NOAA-19) Lat,Lon (NOAA-19) SZA (NOAA-19 ) Distance(km) Time Diff (sec)
1 03/04/2023 10:02:27 -76.46,-160.42 96.83 03/04/2023 10:01:19 -76.46,-163.12 96.65 70.36 68
2 03/04/2023 10:53:21 76.79, 5.59 83.56 03/04/2023 10:52:15 76.81, 5.55 83.59 2.10 66
3 03/04/2023 11:44:07 -76.83, 172.75 96.42 03/04/2023 11:43:10 -76.82, 172.86 96.42 3.13 57
4 03/04/2023 12:34:53 76.81, -19.87 83.55 03/04/2023 12:34:14 76.82, -19.88 83.58 1.64 39
5 03/04/2023 13:25:38 -76.80, 147.47 96.47 03/04/2023 13:25:09 -76.83, 147.43 96.44 3.40 29
6 03/04/2023 14:16:25 76.83, -45.32 83.55 03/04/2023 14:16:13 76.84, -45.30 83.56 1.41 12
7 03/04/2023 15:07:10 -76.82, 122.02 96.48 03/04/2023 15:07:08 -76.85, 122.01 96.45 3.01 2
8 03/04/2023 15:57:56 76.85, -70.78 83.54 03/04/2023 15:58:11 76.86, -70.73 83.54 1.55 15
9 03/04/2023 16:48:41 -76.84, 96.56 96.49 03/04/2023 16:49:06 -76.86, 96.58 96.47 2.77 25
10 03/04/2023 17:39:28 76.86, -96.23 83.53 03/04/2023 17:40:10 76.87, -96.16 83.53 1.99 42
11 03/04/2023 18:30:13 -76.86, 71.11 96.49 03/04/2023 18:31:05 -76.88, 71.15 96.48 2.72 52
12 03/04/2023 19:21:00 76.88,-121.69 83.53 03/04/2023 19:22:09 76.89,-121.59 83.51 2.58 69
13 03/04/2023 20:11:50 -77.09, 44.75 96.24 03/04/2023 20:13:00 -77.06, 46.47 96.38 42.91 70



Historial Predications of SNOs between FY3D and NOAA-19
